This demonstration page uses our WeatherBlox Daily Observations layout. Learn more.

Left ArrowRight Arrow

34.02893, -84.19858

Hourly Observations for November 21, 2019

Temp ( °F °C ) Dew Point ( °F °C ) Humidity (%) Winds ( mph kmh ) Pressure ( in mb ) Visibility ( mi km ) Precip ( " mm )
12:53 am 00:53 Clear 42 5.6 38 3.3 85 85 Calm 30.24 1024 10 16 0.00 0.00
1:53 am 01:53 Clear 43 6.1 39 3.9 86 86 Calm 30.25 1025 10 16 0.00 0.00
2:53 am 02:53 Clear 41 5 39 3.9 93 93 Calm 30.25 1024 10 16 0.00 0.00
3:53 am 03:53 Clear 41 5 38 3.3 89 89 Calm 30.25 1024 10 16 0.00 0.00
4:53 am 04:53 Clear 40 4.4 38 3.3 93 93 Calm 30.26 1025 10 16 0.00 0.00
5:53 am 05:53 Clear 41 5 39 3.9 93 93 Calm 30.27 1025 10 16 0.00 0.00
6:53 am 06:53 Clear 39 3.9 37 2.8 93 93 NE 3 6 30.31 1026 10 16 0.00 0.00
7:53 am 07:53 Sunny 41 5 39 3.9 93 93 Calm 30.32 1027 10 16 0.00 0.00
9:53 am 09:53 Sunny 54 12.2 41 5 62 62 SSW 3 6 30.32 1027 10 16 0.00 0.00
10:53 am 10:53 Sunny 58 14.4 40 4.4 51 51 S 7 11 30.30 1026 10 16 0.00 0.00
11:53 am 11:53 Sunny 61 16.1 40 4.4 46 46 S 9 15 30.27 1025 10 16 0.00 0.00
12:53 pm 12:53 Sunny 64 17.8 38 3.3 38 38 VRB 5 7 30.23 1024 10 16 0.00 0.00
1:53 pm 13:53 Sunny 64 17.8 38 3.3 38 38 S 6 9 30.20 1023 10 16 0.00 0.00
2:53 pm 14:53 Sunny 62 16.7 38 3.3 41 41 SSW 8 13 30.19 1023 10 16 0.00 0.00
3:53 pm 15:53 Sunny 62 16.7 40 4.4 44 44 S 6 9 30.20 1023 10 16 0.00 0.00
4:53 pm 16:53 Sunny 60 15.6 40 4.4 47 47 SSE 6 9 30.20 1023 10 16 0.00 0.00
5:53 pm 17:53 Clear 58 14.4 40 4.4 51 51 SSE 5 7 30.19 1022 10 16 0.00 0.00
6:53 pm 18:53 Clear 57 13.9 41 5 55 55 S 5 7 30.19 1023 10 16 0.00 0.00
7:53 pm 19:53 Clear 55 12.8 41 5 59 59 SSE 3 6 30.20 1023 10 16 0.00 0.00
8:53 pm 20:53 Cloudy 54 12.2 42 5.6 64 64 SSE 3 6 30.19 1022 10 16 0.00 0.00
9:53 pm 21:53 Clear 52 11.1 43 6.1 72 72 Calm 30.19 1023 10 16 0.00 0.00
10:53 pm 22:53 Clear 50 10 42 5.6 74 74 Calm 30.17 1022 10 16 0.00 0.00
11:53 pm 23:53 Clear 48 8.9 43 6.1 83 83 Calm 30.16 1021 10 16 0.00 0.00

Powered by AerisWeather